Regional Weather Roundup
Issued by NWS Little Rock, AR

Home | Current Version | Previous Version | Graphics & Text | Print | Product List | Glossary On
Versions: 1 2 3 4 5 6 7 8 9 10 11 12 13 14 15 16 17 18 19 20 21 22 23 24 25 26 27 28 29 30 31 32
000
ASUS44 KLZK 280505
RWRLZK

WEATHER ROUNDUP FOR ARKANSAS
NATIONAL WEATHER SERVICE LITTLE ROCK AR
1200 AM CDT FRI JUL 28 2017

NOTE: "FAIR" INDICATES FEW OR NO CLOUDS BELOW 12,000 FEET WITH NO
SIGNIFICANT WEATHER AND/OR OBSTRUCTIONS TO VISIBILITY.

ARZ001-003-010-029-280600-
NORTHWEST ARKANSAS

CITY           SKY/WX    TMP DP  RH WIND       PRES   REMARKS
FAYETTEVILLE   PTCLDY    77  77 100 S5        29.93S
FORT SMITH     CLOUDY    87  76  69 CALM      29.87F HX  97
HARRISON       CLOUDY    78  76  93 S5        29.95R
BENTONVILLE    MOCLDY    81  73  78 CALM      29.94S HX  85
ROGERS         CLOUDY    78  74  87 N6        29.94F
SILOAM SPGS    MOCLDY    79  73  83 E3        29.92F
HIGHFILL       CLOUDY    79  75  87 N3        29.93F
$$

ARZ004-005-016-280600-
NORTH CENTRAL ARKANSAS

CITY           SKY/WX    TMP DP  RH WIND       PRES   REMARKS
BATESVILLE     CLOUDY    81  73  78 S9        29.89F HX  85
FLIPPIN        CLOUDY    79  72  78 CALM      29.89S
MTN HOME       CLOUDY    78  76  93 S3        29.91S
$$

ARZ040-041-280600-
WEST CENTRAL ARKANSAS

CITY           SKY/WX    TMP DP  RH WIND       PRES   REMARKS
MENA           CLOUDY    86  75  70 SW3       29.94F HX  95
MOUNT IDA      CLOUDY    81  71  71 CALM      29.90F HX  85
$$

ARZ009-017-025-026-028-280600-
NORTHEAST ARKANSAS

CITY           SKY/WX    TMP DP  RH WIND       PRES   REMARKS
JONESBORO      PTCLDY    79  76  90 SW7       29.88F
WALNUT RIDGE   CLOUDY    79  72  78 SW3       29.88S
BLYTHEVILLE    CLOUDY    78  77  96 CALM      29.88F
$$

ARZ022-023-033-042-044-280600-
CENTRAL ARKANSAS

CITY           SKY/WX    TMP DP  RH WIND       PRES   REMARKS
LITTLE ROCK    CLOUDY    84  77  79 SW13      29.87F HX  94
N LITTLE ROCK    N/A     84  75  74 SW6       29.89R HX  93
JACKSONVILLE   TSTM      82  77  83 NW15G30   29.91R HX  91
CONWAY           N/A     79  77  94 CALM      29.87S
SEARCY         CLOUDY    78  78 100 NW3       29.93R
HOT SPRINGS    CLOUDY    84  76  76 CALM      29.91S HX  93
RUSSELLVILLE   CLOUDY    77  77 100 SE3       29.88S
CLINTON        MOCLDY    77  75  94 CALM      29.90S
$$

ARZ036-280600-
EAST ARKANSAS

CITY           SKY/WX    TMP DP  RH WIND       PRES   REMARKS
WEST MEMPHIS   PTCLDY    78  77  96 S6        29.87F
$$

ARZ050-053-066-070-073-280600-
SOUTHWEST ARKANSAS

CITY           SKY/WX    TMP DP  RH WIND       PRES   REMARKS
ARKADELPHIA    FAIR      79  77  94 CALM      29.90S
CAMDEN         MOCLDY    82  73  74 S6        29.90S HX  88
TEXARKANA      CLOUDY    82  74  76 SW7       29.91S HX  88
EL DORADO      CLOUDY    80  74  81 SW6       29.92F HX  85
DE QUEEN       PTCLDY    78  78 100 CALM      29.88F
$$

ARZ056-057-069-280600-
SOUTHEAST ARKANSAS

CITY           SKY/WX    TMP DP  RH WIND       PRES   REMARKS
PINE BLUFF     CLOUDY    83  75  77 SW7       29.89F HX  90
STUTTGART      MOCLDY    82  64  54 SW5       29.90R
MONTICELLO     MOCLDY    85  73  67 SW8       29.91S HX  91

$$






USA.gov is the U.S. government's official web portal to all federal, state and local government web resources and services.